Weather in Qo'rg'on

Uzbekistan     40°18′56″N   69°12′13″E
temp.,
°C
wind,
m/s
gust,
m/s
humid.,
%
clouds,
%
prec.,
mm/h
press.,
hPa
HPBL,
m
11 april, sun
sun1123:00+17wsw33410 0.0 101725
02:00+16nw22420 0.0 101611
05:00+14w22440 0.0 101714
08:00+15w56510 0.0 1019427
11:00+18wnw55400 0.0 10201029
14:00+21nw55270 0.0 10181410
17:00+20nw55275 0.0 10181311
20:00+16nnw35388 0.0 1018117
12 april, mon
mon1223:00+13wnw22475 0.0 101820
02:00+12wnw225210 0.0 101814
05:00+10w34648 0.0 101975
08:00+11wnw33490 0.0 1020424
11:00+15nw22380 0.0 1019764
14:00+19nw223211 0.0 1017879
17:00+20nnw4432100 0.0 10171086
20:00+15n225648 0.1 101855
13 april, tue
tue1323:00+13nw116581 0.1 101811
02:00+13wsw2261100 0.0 101813
05:00+13nnw2258100 0.0 101926
08:00+14wnw2251100 0.0 1020195
11:00+16ene3443100 0.0 1020323
14:00+21nne2237100 0.0 10181005
17:00+21ese3334100 0.0 10181023
20:00+18w3339100 0.0 101941
14 april, wed
wed1423:00+16se224889 0.0 101824
02:00+15se334650 0.0 101732
05:00+14se46525 0.0 101775
08:00+18ese48475 0.0 1017394
11:00+23ese78330 0.0 10151194
14:00+26e78270 0.0 10131238
17:00+26e562579 0.0 10111159
20:00+21ne223680 0.0 101112
15 april, thu
thu1523:00+19wnw2244100 0.0 101114
02:00+17w3449100 0.0 101147
05:00+15wsw3342100 0.0 101345
08:00+17w2337100 0.0 1014270
11:00+21nw2329100 0.0 1014756
14:00+24nw3324100 0.0 10121112
17:00+24nw4526100 0.0 10121446
20:00+20nnw2336100 0.0 101324